Station LTRM4 - 9076033 - Little Rapids, MI Image indicating link to RSS feed of recent meteorological observations for station LTRM4


Conditions at LTRM4 as of
(11:00 pm EDT on 04/18/2024)
0300 GMT on 04/19/2024:
     

Click on the graph icon in the table below to see a time series plot of the last five days of that observation.

5-day plot - Wind Direction Wind Direction (WDIR): S ( 180 deg true )
5-day plot - Wind Speed Wind Speed (WSPD):1.5 m/s
5-day plot - Wind Gust Wind Gust (GST):2.6 m/s
5-day plot - Atmospheric Pressure Atmospheric Pressure (PRES):1013.1 mb
5-day plot - Pressure Tendency Pressure Tendency (PTDY): +0.0 mb ( Steady )
5-day plot - Air Temperature Air Temperature (ATMP): 7.4 °C
5-day plot - Water Temperature Water Temperature (WTMP): 4.9 °C
5-day plot - Dew Point Dew Point (DEWP): 4.2 °C
5-day plot - Wind Chill Wind Chill (CHILL): 6.7 °C
5-day plot - Wind Speed at 10 Meters Wind Speed at 10 meters (WSPD10M): 2 m/s
5-day plot - Wind Speed at 20 Meters Wind Speed at 20 meters (WSPD20M): 2 m/s
5-day plot -  Wind Speed, Wind Gust and Atmospheric Pressure Combined plot of Wind Speed, Gust, and Air Pressure
NOS Water Level Observation Network Water Level
Previous observations
TIME
(EDT)
5-day plot - Wind Direction
WDIR
 
5-day plot - Wind Speed
WSPD
m/s
5-day plot - Wind Gust
GST
m/s
5-day plot - Wave Height
WVHT
m
5-day plot - Dominant Wave Period
DPD
sec
5-day plot - Average Wave Period
APD
sec
5-day plot - Mean Wave Direction
MWD
 
5-day plot - Atmospheric Pressure
PRES
mb
5-day plot - Pressure Tendency
PTDY
mb
5-day plot - Air Temperature
ATMP
°C
5-day plot - Water Temperature
WTMP
°C
5-day plot - Dew Point
DEWP
°C
5-day plot - Salinity
SAL
psu
5-day plot - Visibility
VIS
km
5-day plot - Tide (above MLLW)
TIDE
m
2024-04-18 10:54 pmSSE 1.5 2.1----1013.1- 7.2 4.9 4.0---
2024-04-18 10:48 pmSSE 2.1 3.1----1013.2- 7.3 4.9 4.1---
2024-04-18 10:42 pmSSE 2.1 3.1----1013.2- 7.5 4.9 4.2---
2024-04-18 10:36 pmSSE 2.6 2.6----1013.3- 6.9 4.9 3.7---
2024-04-18 10:30 pmSSE 1.5 1.5----1013.5- 7.6 4.9 3.9---
2024-04-18 10:24 pm S 1.5 2.1----1013.5- 7.6 4.8 4.0---
2024-04-18 10:18 pm S 1.0 2.6----1013.6- 7.5 4.9 4.1---
2024-04-18 10:12 pmSSE 2.1 2.6----1013.6- 7.5 4.8 3.8---
2024-04-18 10:06 pm S 1.5 2.1----1013.5- 7.8 4.9 3.8---
2024-04-18 10:00 pm S 1.0 1.5----1013.6 +0.5 7.7 4.9 3.9---
2024-04-18 09:54 pm S 1.0 1.0----1013.6- 8.1 4.9 3.9---
2024-04-18 09:48 pm SW 0.5 1.0----1013.6- 8.2 4.9 3.9---
2024-04-18 09:42 pm S 1.0 1.5----1013.4- 8.2 4.9 3.9---
2024-04-18 09:36 pmSSE 1.5 2.1----1013.3- 7.8 4.9 3.8---
2024-04-18 09:30 pm SE 1.5 2.1----1013.2- 8.0 4.9 3.7---
2024-04-18 09:24 pmSSE 1.0 1.5----1013.4- 8.2 4.9 3.7---
2024-04-18 09:18 pm S 1.5 1.5----1013.5- 8.4 4.9 3.8---
2024-04-18 09:12 pm S 1.0 1.5----1013.6- 8.5 4.9 3.7---
2024-04-18 09:06 pmSSW 1.5 2.1----1013.6- 8.5 4.9 3.8---
2024-04-18 09:00 pmSSW 1.5 2.6----1013.5 +0.3 8.6 4.9 3.8---
2024-04-18 08:54 pmSSW 1.5 2.1----1013.2- 8.5 4.9 3.6---
2024-04-18 08:48 pmSSW 1.5 2.6----1013.1- 8.6 4.9 3.6---
2024-04-18 08:42 pmSSW 2.1 3.6----1013.0- 8.7 4.9 3.6---
2024-04-18 08:36 pm SW 1.5 3.1----1013.2- 8.8 4.9 3.7---
2024-04-18 08:30 pm SW 2.6 3.1----1013.2- 8.8 4.9 3.6---
2024-04-18 08:24 pm SW 2.1 3.1----1013.0- 8.9 4.9 3.7---
2024-04-18 08:18 pm SW 2.1 3.6----1012.9- 8.9 4.9 3.7---
2024-04-18 08:12 pm SW 2.6 3.6----1012.9- 8.9 4.9 3.7---
2024-04-18 08:06 pm SW 2.6 4.1----1012.9- 9.0 4.9 3.8---
2024-04-18 08:00 pmSSW 2.6 3.6----1012.9 +0.0 9.0 4.9 3.7---
2024-04-18 07:54 pm SW 2.6 5.1----1012.9- 9.1 4.9 3.7---
2024-04-18 07:48 pm SW 2.1 3.6----1012.8- 9.2 4.9 3.7---
2024-04-18 07:42 pm SW 2.6 4.1----1012.9- 9.2 4.9 3.6---
2024-04-18 07:36 pm SW 3.1 6.2----1013.1- 9.3 4.9 3.6---
2024-04-18 07:30 pmWSW 3.1 7.2----1013.2- 9.4 4.9 3.7---
2024-04-18 07:24 pm SW 5.1 7.2----1013.4- 9.5 4.9 3.7---
2024-04-18 07:18 pm SW 3.6 5.1----1013.2- 9.7 4.9 4.1---
2024-04-18 07:12 pmSSW 3.1 4.6----1013.0- 9.8 4.9 4.3---
2024-04-18 07:06 pmSSW 4.1 5.1----1013.0- 9.9 4.9 4.4---
2024-04-18 07:00 pmSSW 3.6 5.1----1013.1 -0.3 10.1 4.8 4.1---
2024-04-18 06:54 pm S 1.5 2.1----1013.1- 10.6 4.8 2.5---
2024-04-18 06:48 pm S 1.5 1.5----1012.9- 10.7 4.8 2.3---
2024-04-18 06:42 pm- 0.0 1.0----1012.8- 10.8 4.9 2.3---
2024-04-18 06:36 pm W 0.5 2.6----1012.8- 10.7 4.9 2.4---
2024-04-18 06:30 pm SW 2.1 3.1----1013.0- 10.8 4.9 2.4---
2024-04-18 06:24 pm W 1.5 2.6----1013.2- 10.8 4.9 2.4---
2024-04-18 06:18 pm W 2.1 2.6----1013.2- 10.7 4.9 2.3---
2024-04-18 06:12 pm W 1.5 2.6----1013.2- 10.9 4.9 2.4---
2024-04-18 06:06 pm- 0.0 1.5----1013.1- 10.5 4.9 3.1---
2024-04-18 06:00 pm NW 1.0 2.1----1013.2 -0.6- 4.9----
2024-04-18 05:54 pm NW 2.1 2.6----1013.2-- 4.9----
2024-04-18 05:48 pm NW 1.5 2.6----1013.1- 10.2 4.9 2.5---
2024-04-18 05:42 pmNNW 1.0 1.5----1013.1- 9.5 4.9 1.9---
2024-04-18 05:36 pm N 1.5 2.1----1013.0- 10.1 4.9 1.7---
2024-04-18 05:30 pm W 1.5 3.1----1013.0- 10.8 4.9 2.4---
2024-04-18 05:24 pm W 1.5 3.1----1013.0- 10.7 4.9 2.1---
2024-04-18 05:18 pm W 1.5 3.1----1013.0- 10.7 4.9 1.9---
2024-04-18 05:12 pmWNW 2.1 3.1----1013.0- 10.7 4.9 2.0---
2024-04-18 05:06 pm W 2.1 2.6----1013.0- 10.7 4.9 1.9---
2024-04-18 05:00 pm NW 1.0 2.6----1012.9 -0.5 10.4 4.9 2.4---
2024-04-18 04:54 pm W 3.1 4.1----1013.0- 10.3 4.9 1.7---
2024-04-18 04:48 pmWNW 2.6 3.1----1013.0- 10.3 4.9 2.4---
2024-04-18 04:42 pmNNW 2.1 2.6----1013.0- 10.0 4.9 2.3---
2024-04-18 04:36 pmNNW 3.1 4.1----1013.1- 9.9 4.9 2.3---
2024-04-18 04:30 pm NW 3.1 4.6----1013.3- 10.1 4.9 2.3---
2024-04-18 04:24 pm NW 3.6 4.6----1013.2- 10.1 4.9 2.3---
2024-04-18 04:18 pm NW 2.6 4.1----1013.3- 9.9 4.9 2.7---
2024-04-18 04:12 pm NW 2.6 4.1----1013.3- 10.1 4.9 2.8---
2024-04-18 04:06 pmWNW 3.6 5.1----1013.2- 9.9 4.9 2.6---
2024-04-18 04:00 pmWNW 4.1 6.2----1013.4 +0.0 9.9 4.9 3.0---
2024-04-18 03:54 pmWNW 4.6 6.2----1013.4- 9.6 4.9 2.5---
2024-04-18 03:48 pm W 3.6 5.7----1013.6- 9.8 4.9 3.0---
2024-04-18 03:42 pm NW 4.6 6.7----1013.6- 9.4 4.9 2.8---
2024-04-18 03:36 pmWNW 4.1 5.7----1013.5- 9.6 4.9 2.7---
2024-04-18 03:30 pm NW 4.1 5.7----1013.5- 9.1 4.9 2.6---
2024-04-18 03:24 pm NW 3.6 5.7----1013.6- 9.1 4.9 3.4---
2024-04-18 03:18 pmWNW 5.1 6.7----1013.7- 9.2 4.9 2.9---
2024-04-18 03:12 pm NW 4.1 8.2----1013.7- 9.0 4.9 3.5---
2024-04-18 03:06 pm NW 4.1 5.7----1013.7- 8.8 4.9 3.1---
2024-04-18 03:00 pm NW 5.1 6.7----1013.8 +0.7 8.9 4.9 3.2---
2024-04-18 02:54 pmWNW 5.1 7.2----1013.8- 8.5 4.9 2.8---
2024-04-18 02:48 pm NW 4.1 5.7----1013.8- 8.4 4.9 3.3---
2024-04-18 02:42 pm NW 4.6 6.7----1013.7- 8.0 4.9 2.7---
2024-04-18 02:36 pm NW 4.6 7.2----1013.7- 8.0 4.9 2.7---
2024-04-18 02:30 pmWNW 4.6 6.7----1013.6- 8.1 4.9 2.6---
2024-04-18 02:24 pmWNW 5.1 6.7----1013.6- 7.9 4.9 2.5---
2024-04-18 02:18 pmWNW 4.6 6.2----1013.5- 7.9 4.9 2.7---
2024-04-18 02:12 pmWNW 5.1 8.2----1013.5- 8.0 4.9 2.4---
2024-04-18 02:06 pmWNW 6.2 9.3----1013.3- 7.8 4.9 2.3---
2024-04-18 02:00 pm W 5.1 6.7----1013.4 -0.3 7.7 4.9 2.3---
2024-04-18 01:54 pmWNW 3.6 5.7----1013.3- 7.5 4.9 2.7---
2024-04-18 01:48 pm W 3.6 5.1----1013.2- 7.3 4.9 2.8---
2024-04-18 01:42 pm W 2.6 3.6----1013.1- 7.2 4.9 3.0---
2024-04-18 01:36 pmWNW 4.1 6.7----1013.2- 6.9 4.9 3.1---
2024-04-18 01:30 pm NW 4.1 5.7----1013.2- 6.7 4.9 3.0---
2024-04-18 01:24 pm NW 3.6 4.6----1013.3- 6.4 4.9 2.9---
2024-04-18 01:18 pmWNW 3.6 6.2----1013.3- 6.2 4.9 2.8---
2024-04-18 01:12 pm W 3.1 5.7----1013.4- 6.4 4.9 3.0---
2024-04-18 01:06 pmWNW 4.6 6.2----1013.4- 6.0 4.8 2.8---
2024-04-18 01:00 pmWNW 4.1 6.2----1013.5 +1.3 5.9 4.9 3.0---
2024-04-18 12:54 pmWNW 4.6 6.7----1013.6- 5.8 4.9 2.9---
2024-04-18 12:48 pmWNW 4.6 7.2----1013.5- 5.6 4.9 2.9---
2024-04-18 12:42 pm W 4.6 5.7----1013.4- 5.7 4.9 3.1---
2024-04-18 12:36 pm W 4.1 5.7----1013.3- 5.7 4.9 3.2---
2024-04-18 12:30 pmWNW 4.6 5.7----1013.1- 5.6 4.9 3.1---
2024-04-18 12:24 pm NW 4.1 5.7----1012.8- 5.5 4.9 3.2---
2024-04-18 12:18 pmWNW 3.6 4.6----1013.0- 5.5 4.9 3.3---
2024-04-18 12:12 pm W 4.1 7.2----1013.2- 5.3 4.9 3.5---
2024-04-18 12:06 pmWNW 4.6 7.2----1013.1- 5.1 4.9 3.4---
2024-04-18 12:00 pmWNW 4.6 6.2----1013.1 +2.7 5.0 4.8 3.4---
2024-04-18 11:54 amWNW 4.6 6.2----1013.2- 5.1 4.9 3.7---
2024-04-18 11:48 amWNW 5.7 7.2----1013.0- 4.8 4.9 3.3---
2024-04-18 11:42 am W 3.1 7.7----1013.3- 5.1 4.9 4.1---
2024-04-18 11:36 amWNW 6.7 8.8----1013.4- 4.9 4.9 3.5---
2024-04-18 11:30 amWNW 3.6 5.7----1013.4- 5.0 4.9 4.1---
2024-04-18 11:24 amWNW 5.1 7.7----1013.7- 4.9 4.9 3.8---
2024-04-18 11:18 amWNW 5.1 8.2----1013.8- 4.8 4.9 3.2---
2024-04-18 11:12 am W 4.6 7.7----1013.8- 4.7 4.9 3.9---
2024-04-18 11:06 amWNW 6.2 8.2----1013.7- 4.6 4.9 3.8---
2024-04-18 11:00 amWNW 5.1 8.8----1013.7 +3.3 4.5 4.9 3.7---
2024-04-18 10:54 am W 5.1 8.2----1013.6- 4.4 4.9 3.7---
2024-04-18 10:48 am W 5.7 8.8------------
2024-04-18 10:42 am W 6.2 8.2------------
2024-04-18 10:36 am W 6.2 9.3------------
2024-04-18 10:30 amWNW 6.7 9.3----1013.1- 4.3 4.9 3.6---
2024-04-18 10:24 am W 7.2 9.3----1012.9- 4.3 4.9 3.4---
2024-04-18 10:18 amWNW 5.1 9.3----1012.7- 4.5 4.9 3.6---
2024-04-18 10:12 am W 6.2 9.8----1012.6- 4.5 4.9 3.6---
2024-04-18 10:06 am W 5.1 8.8----1012.4- 4.6 4.9 3.6---
2024-04-18 10:00 amWNW 4.1 7.2----1012.2 +3.1 4.7 4.9 3.8---
2024-04-18 09:54 amWNW 3.1 6.7----1011.9- 4.7 4.9 3.8---
2024-04-18 09:48 amWNW 4.6 7.2----1011.6- 4.7 4.9 3.6---
2024-04-18 09:42 amWNW 3.6 6.2----1011.3- 4.7 4.9 3.7---
2024-04-18 09:36 amWNW 4.1 6.7----1011.2- 4.7 4.9 3.5---
2024-04-18 09:30 amWNW 2.6 5.7----1010.7- 4.6 4.9 3.8---
2024-04-18 09:24 amWNW 4.6 6.2----1010.8- 4.5 4.9 3.4---
2024-04-18 09:18 amWNW 2.6 5.1----1010.7- 4.6 4.9 3.8---
2024-04-18 09:12 amWNW 4.1 5.7----1010.6- 4.5 4.9 3.5---
2024-04-18 09:06 am W 3.6 4.6----1010.5- 4.5 4.9 3.6---
2024-04-18 09:00 am W 3.1 6.2----1010.4 +3.5 4.5 4.9 3.8---
2024-04-18 08:54 am W 3.6 5.1----1010.4- 4.5 4.9 3.7---
2024-04-18 08:48 amWNW 5.1 6.7----1010.4- 4.5 4.9 3.6---
2024-04-18 08:42 amWNW 3.6 6.2----1010.2- 4.5 4.9 3.8---
2024-04-18 08:36 amWNW 5.1 6.7----1010.2- 4.5 4.9 3.6---
2024-04-18 08:30 am W 3.1 6.2----1010.2- 4.5 4.8 3.8---
2024-04-18 08:24 amWNW 4.1 6.7----1010.2- 4.6 4.8 3.7---
2024-04-18 08:18 am W 3.1 5.7----1010.1- 4.5 4.9 3.8---
2024-04-18 08:12 amWNW 3.6 6.2----1010.1- 4.6 4.9 3.9---
2024-04-18 08:06 amWNW 5.1 6.7----1010.3- 4.6 4.9 3.7---
2024-04-18 08:00 amWNW 3.1 5.7----1010.4 +4.4 4.6 4.9 4.0---
2024-04-18 07:54 amWNW 4.6 6.2----1010.4- 4.6 4.9 3.8---
2024-04-18 07:48 amWNW 4.1 6.2----1010.3- 4.6 4.9 3.9---
2024-04-18 07:42 amWNW 4.6 7.2----1010.2- 4.6 4.9 4.0---
2024-04-18 07:36 amWNW 5.1 6.7----1010.2- 4.7 4.9 4.2---
2024-04-18 07:30 amWNW 5.1 8.2----1009.9- 4.7 4.9 4.3---
2024-04-18 07:24 amWNW 4.6 7.2----1009.8- 4.7 4.9 4.3---
2024-04-18 07:18 amWNW 3.6 5.1----1009.9- 4.7 4.9 4.6---
2024-04-18 07:12 amWNW 4.6 6.7----1009.6- 4.7 4.9 4.5---
2024-04-18 07:06 amWNW 5.7 6.7----1009.5- 4.7 4.8 4.5---
2024-04-18 07:00 amWNW 3.6 7.7----1009.1 +3.1 4.8 4.8 4.8---
2024-04-18 06:54 amWNW 5.1 7.2----1008.8- 4.8 4.8 4.6---
2024-04-18 06:48 amWNW 4.1 6.7----1008.7- 4.8 4.8 4.6---
2024-04-18 06:42 amWNW 5.1 7.2----1008.5- 4.8 4.8 4.6---
2024-04-18 06:36 amWNW 5.1 7.7----1008.5- 4.8 4.8 4.7---
2024-04-18 06:30 am W 5.7 8.8----1008.4- 4.7 4.8 4.5---
2024-04-18 06:24 am W 5.7 8.8----1008.5- 5.0 4.8 4.6---
2024-04-18 06:18 am W 3.6 6.2----1008.1- 5.8 4.9 5.2---
2024-04-18 06:12 am W 3.1 3.6----1007.7- 5.9 4.9 5.3---
2024-04-18 06:06 am W 2.6 3.1----1007.3- 5.8 4.9 5.2---
2024-04-18 06:00 am W 2.1 3.1----1006.9 +1.3 5.8 4.9 5.4---
2024-04-18 05:54 amWSW 2.1 3.1----1006.7- 5.7 4.9 5.1---
2024-04-18 05:48 am- 0.0 1.0----1006.4- 5.6 4.9 5.5---
2024-04-18 05:42 am W 1.0 1.5----1006.5- 5.6 4.9 5.3---
2024-04-18 05:36 amWNW 1.0 1.5----1006.5- 5.6 4.9 5.1---
2024-04-18 05:30 amWNW 0.5 1.0----1006.3- 5.6 4.9 5.5---
2024-04-18 05:24 am W 1.0 1.5----1006.4- 5.6 4.9 5.4---
2024-04-18 05:18 am W 1.0 1.5----1006.4- 5.5 4.9 5.4---
2024-04-18 05:12 am W 1.0 1.5----1006.4- 5.4 4.9 5.2---
2024-04-18 05:06 am N 1.0 2.1----1006.1- 5.3 4.9 5.3---
2024-04-18 05:00 amNNE 1.5 2.1----1006.0 +0.8 5.3 4.9 4.8---
2024-04-18 04:54 am N 0.5 1.0----1006.0- 5.5 4.9 5.0---
2024-04-18 04:48 am W 0.5 0.5----1006.3- 5.6 4.8 5.3---
2024-04-18 04:42 am- 0.0 0.5----1006.3- 5.6 4.9 5.2---
2024-04-18 04:36 am- 0.0 0.5----1006.3- 5.6 4.9 5.4---
2024-04-18 04:30 amSSW 0.5 1.0----1006.3- 5.6 4.9 5.4---
2024-04-18 04:24 amSSW 1.0 1.5----1006.4- 5.6 4.9 5.3---
2024-04-18 04:18 amSSW 1.0 1.5----1006.3- 5.5 4.9 5.1---
2024-04-18 04:12 am S 1.0 1.5----1006.2- 5.4 4.9 5.0---
2024-04-18 04:06 amSSE 1.0 1.5----1006.0- 5.3 4.9 4.9---
2024-04-18 04:00 amSSE 1.0 1.5----1006.0 +1.2 5.5 4.9 5.2---
2024-04-18 03:54 am S 1.5 2.1----1006.0- 5.5 4.9 5.2---
2024-04-18 03:48 am S 1.5 2.1----1006.0- 5.5 4.9 5.2---
2024-04-18 03:42 amSSE 1.0 2.6----1005.9- 5.5 4.9 5.2---
2024-04-18 03:36 amSSE 1.5 2.6----1005.8- 5.4 4.9 5.2---
2024-04-18 03:30 amSSE 2.6 3.1----1005.8- 5.6 4.9 5.1---
2024-04-18 03:24 am S 2.1 2.6----1005.9- 5.7 4.9 5.3---
2024-04-18 03:18 am S 1.5 2.6----1005.8- 5.7 4.8 5.2---
2024-04-18 03:12 am S 1.5 2.1----1005.8- 5.8 4.9 5.4---
2024-04-18 03:06 amSSE 2.1 3.6----1005.7- 5.9 4.9 5.5---
2024-04-18 03:00 amSSE 2.1 4.6----1005.6 +0.7 6.0 4.9 5.5---
2024-04-18 02:54 amSSE 2.6 4.6----1005.5- 6.0 4.9 5.5---
2024-04-18 02:48 am SE 3.1 4.6----1005.3- 6.0 4.9 5.5---
2024-04-18 02:42 amESE 4.6 6.2----1005.2- 6.1 4.9 5.4---
2024-04-18 02:36 am SE 4.1 5.1----1005.2- 6.1 4.9 5.5---
2024-04-18 02:30 amESE 3.6 5.7----1005.1- 6.1 4.9 5.5---
2024-04-18 02:24 amESE 3.6 4.6----1005.1- 6.1 4.9 5.5---
2024-04-18 02:18 amESE 4.1 8.2----1005.0- 6.1 4.9 5.4---
2024-04-18 02:12 amESE 4.6 7.2----1005.0- 6.2 4.9 5.4---
2024-04-18 02:06 am SE 4.1 5.7----1005.1- 6.2 4.9 5.6---
2024-04-18 02:00 am SE 4.1 5.7----1005.2 +0.0 6.2 4.9 5.5---
2024-04-18 01:54 am SE 3.1 5.1----1005.2- 6.1 4.9 5.5---
2024-04-18 01:48 am SE 3.6 5.7----1005.1- 6.2 4.9 5.5---
2024-04-18 01:42 amESE 3.1 4.6----1005.1- 6.2 4.9 5.5---
2024-04-18 01:36 amESE 2.6 3.6----1005.1- 6.1 4.9 5.4---
2024-04-18 01:30 am SE 3.1 4.6----1005.1- 6.2 4.9 5.6---
2024-04-18 01:24 am SE 3.1 4.1----1005.1- 6.1 4.9 5.4---
2024-04-18 01:18 am SE 3.1 4.6----1004.9- 6.1 4.9 5.5---
2024-04-18 01:12 am SE 3.6 5.7----1005.0- 6.2 4.9 5.5---
2024-04-18 01:06 amESE 3.6 4.6----1004.9- 6.2 4.9 5.5---
2024-04-18 01:00 amESE 3.6 6.2----1004.8 -0.7 6.2 4.9 5.5---
2024-04-18 12:54 amESE 3.6 6.2----1004.8- 6.2 4.9 5.5---
2024-04-18 12:48 amESE 3.1 4.6----1004.9- 6.1 4.9 5.3---
2024-04-18 12:42 amESE 3.6 4.6----1004.9- 6.1 4.9 5.2---
2024-04-18 12:36 amESE 2.6 4.1----1004.9- 6.1 4.9 5.3---
2024-04-18 12:30 am SE 3.6 5.1----1005.0- 6.1 4.9 5.1---
2024-04-18 12:24 am SE 3.6 5.1----1005.0- 6.1 4.9 5.2---
2024-04-18 12:18 amESE 3.1 5.1----1004.9- 6.0 4.9 5.2---
2024-04-18 12:12 amESE 4.1 5.7----1004.8- 6.0 4.9 5.1---
2024-04-18 12:06 amESE 3.6 5.1----1004.9- 6.0 4.9 5.1---
2024-04-18 12:00 amESE 3.1 4.1----1004.9 -0.4 6.0 4.9 5.1---
2024-04-17 11:54 pmESE 3.6 6.7----1004.9- 6.0 4.9 5.1---
2024-04-17 11:48 pmESE 3.1 5.1----1004.9- 6.0 4.9 5.2---
2024-04-17 11:42 pmESE 4.1 7.2----1004.8- 6.0 4.9 5.1---
2024-04-17 11:36 pmESE 3.6 6.7----1004.9- 6.0 4.9 5.2---
2024-04-17 11:30 pmESE 4.6 7.2----1004.8- 6.0 4.9 5.0---
2024-04-17 11:24 pmESE 4.1 6.2----1005.0- 6.0 4.9 5.0---
2024-04-17 11:18 pmESE 4.6 6.2----1005.0- 6.0 4.9 4.1---
2024-04-17 11:12 pmESE 4.1 5.1----1005.1- 6.0 4.9 4.9---
2024-04-17 11:06 pmESE 3.6 5.1----1005.2- 6.0 4.9 5.0---
2024-04-17 11:00 pmESE 4.1 6.2----1005.2 +0.0 6.0 4.9 4.9---
2024-04-17 10:54 pmESE 3.6 5.7----1005.2- 6.0 4.9 4.9---